Location: Newark
(49.2191°N, 12.6671°E)
Time: 15:07:53
(UTC+00:00)

Transit 4A - Pass Details

Date: 24 January 2020
Orbit: 872 x 973 km, 66.8° (Epoch: 26 February)

Event Time Altitude Azimuth Distance (km) Brightness Sun altitude
Rises 11:20:15 0° 316° (NW) 3,489 10.5 21.5°
Reaches altitude 10° 11:23:51 10° 338° (NNW) 2,539 9.7 21.5°
Maximum altitude 11:27:21 16° 15° (NNE) 2,138 9.4 21.5°
Drops below altitude 10° 11:30:50 10° 52° (NE) 2,529 9.9 21.5°
Sets 11:34:24 0° 74° (ENE) 3,469 10.7 21.5°
